Weather History for KPSK - December, 2012

Change the Weather History Date:

Tuesday, December 11, 2012

  Actual Average (KBCB) Record (KBCB)
Temperature  
Mean Temperature 34 °F 34 °F  
Max Temperature 41 °F 45 °F 71 °F (2007)
Min Temperature 28 °F 25 °F 4 °F (1995)
Degree Days  
Heating Degree Days 30 30  
Month to date heating degree days 318  
Since 1 July heating degree days 1498  
Cooling Degree Days 0 0  
Month to date cooling degree days 0  
Year to date cooling degree days 573  
Moisture  
Dew Point 31 °F    
Average Humidity 80    
Maximum Humidity 93    
Minimum Humidity 65    
Precipitation  
Precipitation 0.00 in 0.11 in 1.75 in (2008)
Month to date precipitation 1.13  
Year to date precipitation 39.07  
Snow  
Snow 0.00 in - - ()
Month to date snowfall  
Since 1 July snowfall  
Snow Depth -    
Sea Level Pressure  
Sea Level Pressure 30.02 in    
Wind  
Wind Speed 6 mph (NW)    
Max Wind Speed 12 mph    
Max Gust Speed 16 mph    
Visibility 10 miles    
Events      
T = Trace of Precipitation, MM = Missing Value Source: NWS Daily Summary

Daily Weather History Graph

Daily Weather History Graph

Search for Another Location

Airport or City:

Trip Planner

Search our weather history database for the weather conditions in past years. The results will help you decide how hot, cold, wet, or windy it might be!

Date:

Astronomy

Dec. 11, 2012 Rise Set
Actual Time 7:26 AM EST 5:05 PM EST
Civil Twilight 6:57 AM EST 5:34 PM EST
Nautical Twilight 6:25 AM EST 6:07 PM EST
Astronomical Twilight 5:53 AM EST 6:39 PM EST
Moon 5:20 AM EST (12/11) 3:42 PM EST (12/11)
Length of Visible Light 10h 37m
Length of Day
9h 39m
Waning Crescent, 4% of the Moon is Illuminated
Dec 11
Waning Crescent
Dec 13
New
Dec 20
First Quarter
Dec 28
Full
Jan 4
Last Quarter

Hourly Weather History & Observations

Time (EST) Temp. Windchill Dew Point Humidity Pressure Visibility Wind Dir Wind Speed Gust Speed Precip Events Conditions
12:15 AM 41.0 °F 35.8 °F 37.4 °F 87% 29.81 in 10.0 mi NW 8.1 mph 16.1 mph N/A   Overcast
12:35 AM 41.0 °F 37.1 °F 37.4 °F 87% 29.81 in 10.0 mi WNW 5.8 mph - N/A   Overcast
12:55 AM 41.0 °F 36.4 °F 37.4 °F 87% 29.82 in 10.0 mi WNW 6.9 mph - N/A   Overcast
1:15 AM 41.0 °F 36.4 °F 35.6 °F 81% 29.82 in 10.0 mi West 6.9 mph - N/A   Overcast
1:35 AM 39.2 °F 32.0 °F 35.6 °F 87% 29.82 in 10.0 mi West 11.5 mph - N/A   Overcast
1:55 AM 39.2 °F 34.2 °F 35.6 °F 87% 29.83 in 10.0 mi West 6.9 mph - N/A   Overcast
2:15 AM 39.2 °F 33.6 °F 35.6 °F 87% 29.83 in 10.0 mi West 8.1 mph - N/A   Mostly Cloudy
2:35 AM 39.2 °F 35.0 °F 35.6 °F 87% 29.84 in 10.0 mi West 5.8 mph - N/A   Overcast
2:55 AM 39.2 °F 34.2 °F 35.6 °F 87% 29.85 in 10.0 mi West 6.9 mph - N/A   Mostly Cloudy
3:15 AM 37.4 °F 32.8 °F 35.6 °F 93% 29.85 in 10.0 mi WSW 5.8 mph - N/A   Scattered Clouds
3:35 AM 37.4 °F 33.8 °F 35.6 °F 93% 29.86 in 10.0 mi West 4.6 mph - N/A   Scattered Clouds
3:55 AM 37.4 °F 33.8 °F 35.6 °F 93% 29.86 in 10.0 mi WNW 4.6 mph - N/A   Mostly Cloudy
4:15 AM 37.4 °F 30.3 °F 35.6 °F 93% 29.86 in 10.0 mi NW 10.4 mph - N/A   Scattered Clouds
4:35 AM 37.4 °F 32.8 °F 33.8 °F 87% 29.87 in 10.0 mi WNW 5.8 mph - N/A   Clear
4:55 AM 37.4 °F 33.8 °F 33.8 °F 87% 29.88 in 10.0 mi NW 4.6 mph - N/A   Scattered Clouds
5:15 AM 37.4 °F 33.8 °F 33.8 °F 87% 29.89 in 10.0 mi WNW 4.6 mph - N/A   Mostly Cloudy
5:35 AM 37.4 °F 32.1 °F 33.8 °F 87% 29.91 in 10.0 mi NW 6.9 mph - N/A   Scattered Clouds
5:55 AM 37.4 °F 30.3 °F 33.8 °F 87% 29.90 in 10.0 mi WNW 10.4 mph - N/A   Clear
6:15 AM 37.4 °F 31.4 °F 33.8 °F 87% 29.91 in 10.0 mi WNW 8.1 mph - N/A   Clear
6:35 AM 35.6 °F 32.8 °F 33.8 °F 93% 29.92 in 10.0 mi WNW 3.5 mph - N/A   Clear
6:55 AM 35.6 °F 32.8 °F 33.8 °F 93% 29.94 in 10.0 mi WNW 3.5 mph - N/A   Clear
7:15 AM 35.6 °F 32.8 °F 33.8 °F 93% 29.95 in 10.0 mi West 3.5 mph - N/A   Clear
7:35 AM 35.6 °F 30.7 °F 33.8 °F 93% 29.96 in 10.0 mi WNW 5.8 mph - N/A   Clear
7:55 AM 35.6 °F - 33.8 °F 93% 29.97 in 10.0 mi Calm Calm - N/A   Scattered Clouds
8:15 AM 37.4 °F 33.8 °F 33.8 °F 87% 29.96 in 10.0 mi NW 4.6 mph - N/A   Scattered Clouds
8:35 AM 37.4 °F 33.8 °F 35.6 °F 93% 29.98 in 10.0 mi WNW 4.6 mph - N/A   Scattered Clouds
8:55 AM 37.4 °F - 35.6 °F 93% 29.99 in 10.0 mi Calm Calm - N/A   Mostly Cloudy
9:15 AM 37.4 °F 32.8 °F 33.8 °F 87% 29.99 in 10.0 mi NW 5.8 mph - N/A   Overcast
9:35 AM 39.2 °F 33.0 °F 33.8 °F 81% 29.99 in 10.0 mi WNW 9.2 mph - N/A   Overcast
9:55 AM 39.2 °F 34.2 °F 32.0 °F 75% 30.01 in 10.0 mi WNW 6.9 mph - N/A   Mostly Cloudy
10:15 AM 39.2 °F 34.2 °F 30.2 °F 70% 30.02 in 10.0 mi WNW 6.9 mph - N/A   Overcast
10:35 AM 39.2 °F 32.5 °F 32.0 °F 75% 30.03 in 10.0 mi WNW 10.4 mph - N/A   Overcast
10:55 AM 39.2 °F 34.2 °F 32.0 °F 75% 30.04 in 10.0 mi WNW 6.9 mph - N/A   Overcast
11:15 AM 39.2 °F 33.6 °F 30.2 °F 70% 30.04 in 10.0 mi WNW 8.1 mph - N/A   Overcast
11:35 AM 37.4 °F 30.3 °F 30.2 °F 75% 30.03 in 10.0 mi NW 10.4 mph - N/A   Overcast
11:55 AM 37.4 °F 32.1 °F 30.2 °F 75% 30.03 in 10.0 mi NW 6.9 mph - N/A   Overcast
12:15 PM 37.4 °F 32.8 °F 30.2 °F 75% 30.03 in 10.0 mi NW 5.8 mph - N/A   Overcast
12:35 PM 39.2 °F 33.6 °F 30.2 °F 70% 30.02 in 10.0 mi NW 8.1 mph - N/A   Overcast
12:55 PM 37.4 °F 33.8 °F 30.2 °F 75% 30.02 in 10.0 mi NNW 4.6 mph - N/A   Overcast
1:15 PM 37.4 °F 32.1 °F 28.4 °F 70% 30.03 in 10.0 mi NW 6.9 mph - N/A   Overcast
1:35 PM 37.4 °F 32.8 °F 28.4 °F 70% 30.03 in 10.0 mi NNW 5.8 mph - N/A   Overcast
1:55 PM 37.4 °F 32.1 °F 28.4 °F 70% 30.03 in 10.0 mi NW 6.9 mph - N/A   Overcast
2:15 PM 37.4 °F 31.4 °F 28.4 °F 70% 30.03 in 10.0 mi NW 8.1 mph - N/A   Overcast
2:35 PM 37.4 °F 30.8 °F 28.4 °F 70% 30.04 in 10.0 mi NW 9.2 mph - N/A   Overcast
2:55 PM 37.4 °F 33.8 °F 28.4 °F 70% 30.06 in 10.0 mi NW 4.6 mph - N/A   Overcast
3:15 PM 37.4 °F 33.8 °F 28.4 °F 70% 30.07 in 10.0 mi WNW 4.6 mph - N/A   Overcast
3:35 PM 37.4 °F 32.8 °F 28.4 °F 70% 30.07 in 10.0 mi West 5.8 mph - N/A   Overcast
3:55 PM 37.4 °F 31.4 °F 28.4 °F 70% 30.07 in 10.0 mi WNW 8.1 mph - N/A   Overcast
4:15 PM 37.4 °F 34.9 °F 28.4 °F 70% 30.08 in 10.0 mi NW 3.5 mph - N/A   Overcast
4:35 PM 37.4 °F 32.8 °F 26.6 °F 65% 30.09 in 10.0 mi NNW 5.8 mph - N/A   Overcast
4:55 PM 35.6 °F 30.7 °F 26.6 °F 70% 30.10 in 10.0 mi NNW 5.8 mph - N/A   Mostly Cloudy
5:15 PM 35.6 °F 32.8 °F 26.6 °F 70% 30.11 in 10.0 mi NNW 3.5 mph - N/A   Overcast
5:35 PM 35.6 °F 30.7 °F 26.6 °F 70% 30.12 in 10.0 mi WNW 5.8 mph - N/A   Mostly Cloudy
5:55 PM 33.8 °F 29.6 °F 26.6 °F 75% 30.12 in 10.0 mi NW 4.6 mph - N/A   Scattered Clouds
6:15 PM 33.8 °F 30.8 °F 26.6 °F 75% 30.12 in 10.0 mi NNW 3.5 mph - N/A   Scattered Clouds
6:35 PM 33.8 °F 30.8 °F 26.6 °F 75% 30.14 in 10.0 mi NNW 3.5 mph - N/A   Mostly Cloudy
6:55 PM 33.8 °F 28.6 °F 26.6 °F 75% 30.14 in 10.0 mi NNW 5.8 mph - N/A   Overcast
7:15 PM 33.8 °F 28.6 °F 26.6 °F 75% 30.14 in 10.0 mi NNW 5.8 mph - N/A   Mostly Cloudy
7:35 PM 33.8 °F - 26.6 °F 75% 30.15 in 10.0 mi Calm Calm - N/A   Scattered Clouds
7:55 PM 33.8 °F - 26.6 °F 75% 30.16 in 10.0 mi Calm Calm - N/A   Clear
8:15 PM 32.0 °F 28.7 °F 26.6 °F 80% 30.16 in 10.0 mi NW 3.5 mph - N/A   Clear
8:35 PM 32.0 °F - 26.6 °F 80% 30.17 in 10.0 mi Calm Calm - N/A   Clear
8:55 PM 32.0 °F 28.7 °F 26.6 °F 80% 30.17 in 10.0 mi North 3.5 mph - N/A   Clear
9:15 PM 30.2 °F - 26.6 °F 86% 30.17 in 10.0 mi Calm Calm - N/A   Clear
9:35 PM 30.2 °F - 24.8 °F 80% 30.17 in 10.0 mi Calm Calm - N/A   Clear
9:55 PM 30.2 °F - 26.6 °F 86% 30.18 in 10.0 mi Calm Calm - N/A   Clear
10:15 PM 30.2 °F 26.7 °F 24.8 °F 80% 30.19 in 10.0 mi NNW 3.5 mph - N/A   Clear
10:35 PM 30.2 °F - 24.8 °F 80% 30.18 in 10.0 mi Calm Calm - N/A   Clear
10:55 PM 30.2 °F - 24.8 °F 80% 30.19 in 10.0 mi Calm Calm - N/A   Clear
11:15 PM 28.4 °F 24.6 °F 24.8 °F 86% 30.19 in 10.0 mi NNW 3.5 mph - N/A   Clear
11:35 PM 30.2 °F 26.7 °F 24.8 °F 80% 30.19 in 10.0 mi NW 3.5 mph - N/A   Clear
11:55 PM 30.2 °F 25.4 °F 24.8 °F 80% 30.19 in 10.0 mi WNW 4.6 mph - N/A   Clear